Time,TemperatureF,DewpointF,PressureIn,WindDirection,WindDirectionDegrees,WindSpeedMPH,WindSpeedGustMPH,Humidity,HourlyPrecipIn,Conditions,Clouds,dailyrainin,SoftwareType,DateUTC
2013-05-29 00:01:00,66.6,61.2,29.85,West,260,0.0,0.0,83,0.02,,,0.00,VWS V14.01,2013-05-29 04:01:00,
2013-05-29 00:02:00,66.4,61.0,29.85,West,260,0.0,1.2,83,0.03,,,0.01,VWS V14.01,2013-05-29 04:02:00,
2013-05-29 00:07:00,66.1,61.1,29.87,South,178,5.9,8.3,84,0.03,,,0.01,VWS V14.01,2013-05-29 04:07:00,
2013-05-29 00:12:00,66.0,61.7,29.88,SSW,202,8.3,9.4,86,0.03,,,0.01,VWS V14.01,2013-05-29 04:12:00,
2013-05-29 00:17:00,65.5,61.5,29.87,SSW,207,0.0,9.4,87,0.04,,,0.02,VWS V14.01,2013-05-29 04:17:00,
2013-05-29 00:22:00,65.2,61.5,29.86,South,176,7.1,7.1,88,0.04,,,0.02,VWS V14.01,2013-05-29 04:22:00,
2013-05-29 00:27:00,65.0,61.3,29.86,SSW,194,0.0,3.5,88,0.04,,,0.02,VWS V14.01,2013-05-29 04:27:00,
2013-05-29 00:32:00,64.7,61.0,29.84,SSW,200,0.0,1.2,88,0.05,,,0.03,VWS V14.01,2013-05-29 04:32:00,
2013-05-29 00:37:00,64.5,61.2,29.85,SSW,199,0.0,4.7,89,0.05,,,0.03,VWS V14.01,2013-05-29 04:37:00,
2013-05-29 00:42:00,64.5,61.5,29.83,SE,129,5.9,8.3,90,0.05,,,0.04,VWS V14.01,2013-05-29 04:42:00,
2013-05-29 00:47:00,64.3,61.3,29.83,East,85,0.0,0.0,90,0.05,,,0.04,VWS V14.01,2013-05-29 04:47:00,
2013-05-29 00:52:00,64.2,61.5,29.80,East,85,0.0,3.5,91,0.04,,-RA,0.04,VWS V14.01,2013-05-29 04:52:00,
2013-05-29 00:57:00,64.2,61.5,29.85,SSW,200,9.4,9.4,91,0.04,,-RA,0.04,VWS V14.01,2013-05-29 04:57:00,
2013-05-29 01:02:00,64.0,61.6,29.86,SSW,196,8.3,9.4,92,0.05,,-RA,0.05,VWS V14.01,2013-05-29 05:02:00,
2013-05-29 01:07:00,64.0,61.6,29.86,SSW,197,3.5,5.9,92,0.04,,-RA,0.05,VWS V14.01,2013-05-29 05:07:00,
2013-05-29 01:12:00,63.9,61.5,29.86,SSW,193,5.9,9.4,92,0.04,,-RA,0.05,VWS V14.01,2013-05-29 05:12:00,
2013-05-29 01:17:00,63.7,61.6,29.86,South,184,1.2,10.6,93,0.04,,-RA,0.06,VWS V14.01,2013-05-29 05:17:00,
2013-05-29 01:22:00,63.7,61.6,29.85,SSW,206,3.5,5.9,93,0.04,,-RA,0.06,VWS V14.01,2013-05-29 05:22:00,
2013-05-29 01:27:00,63.5,61.7,29.86,SSE,168,4.7,5.9,94,0.04,,-RA,0.06,VWS V14.01,2013-05-29 05:27:00,
2013-05-29 01:32:00,63.5,61.7,29.85,SW,218,3.5,7.1,94,0.03,,-RA,0.06,VWS V14.01,2013-05-29 05:32:00,
2013-05-29 01:37:00,63.4,61.6,29.85,SW,236,1.2,5.9,94,0.04,,-RA,0.07,VWS V14.01,2013-05-29 05:37:00,
2013-05-29 01:42:00,63.4,61.6,29.84,SSW,202,5.9,5.9,94,0.04,,-RA,0.07,VWS V14.01,2013-05-29 05:42:00,
2013-05-29 01:47:00,63.2,61.4,29.84,SW,231,0.0,2.4,94,0.03,,-RA,0.07,VWS V14.01,2013-05-29 05:47:00,
2013-05-29 01:52:00,63.2,61.4,29.84,SW,223,0.0,0.0,94,0.04,,SCT110,0.08,VWS V14.01,2013-05-29 05:52:00,
2013-05-29 01:57:00,63.1,61.3,29.85,SW,223,1.2,3.5,94,0.04,,SCT110,0.08,VWS V14.01,2013-05-29 05:57:00,
2013-05-29 02:02:00,63.1,61.6,29.85,SW,227,0.0,3.5,95,0.03,,SCT110,0.08,VWS V14.01,2013-05-29 06:02:00,
2013-05-29 02:07:00,62.9,61.4,29.85,SW,228,0.0,1.2,95,0.03,,SCT110,0.08,VWS V14.01,2013-05-29 06:07:00,
2013-05-29 02:12:00,62.9,61.4,29.85,SW,227,0.0,2.4,95,0.03,,SCT110,0.08,VWS V14.01,2013-05-29 06:12:00,
2013-05-29 02:17:00,62.7,61.2,29.85,South,189,2.4,2.4,95,0.03,,SCT110,0.09,VWS V14.01,2013-05-29 06:17:00,
2013-05-29 02:22:00,62.7,61.2,29.85,South,189,1.2,1.2,95,0.03,,SCT110,0.09,VWS V14.01,2013-05-29 06:22:00,
2013-05-29 02:27:00,62.7,61.2,29.84,South,189,0.0,1.2,95,0.03,,SCT110,0.09,VWS V14.01,2013-05-29 06:27:00,
2013-05-29 02:32:00,62.7,61.2,29.85,South,189,0.0,0.0,95,0.03,,SCT110,0.09,VWS V14.01,2013-05-29 06:32:00,
2013-05-29 02:37:00,62.6,61.1,29.84,South,189,0.0,0.0,95,0.03,,SCT110,0.10,VWS V14.01,2013-05-29 06:37:00,
2013-05-29 02:42:00,62.6,61.4,29.84,South,189,2.4,2.4,96,0.03,,SCT110,0.10,VWS V14.01,2013-05-29 06:42:00,
2013-05-29 02:47:00,62.6,61.4,29.84,South,172,0.0,0.0,96,0.03,,SCT110,0.10,VWS V14.01,2013-05-29 06:47:00,
2013-05-29 02:52:00,62.4,61.2,29.84,South,172,0.0,0.0,96,0.02,,CLR,0.10,VWS V14.01,2013-05-29 06:52:00,
2013-05-29 02:57:00,62.4,61.2,29.84,South,172,0.0,0.0,96,0.02,,CLR,0.10,VWS V14.01,2013-05-29 06:57:00,
2013-05-29 03:02:00,62.4,61.2,29.84,South,172,0.0,0.0,96,0.02,,CLR,0.10,VWS V14.01,2013-05-29 07:02:00,
2013-05-29 03:07:00,62.3,61.1,29.83,South,172,0.0,0.0,96,0.03,,CLR,0.11,VWS V14.01,2013-05-29 07:07:00,
2013-05-29 03:12:00,62.3,61.1,29.83,South,172,0.0,0.0,96,0.03,,CLR,0.11,VWS V14.01,2013-05-29 07:12:00,
2013-05-29 03:17:00,62.1,60.9,29.83,South,172,0.0,0.0,96,0.02,,CLR,0.11,VWS V14.01,2013-05-29 07:17:00,
2013-05-29 03:22:00,62.1,60.9,29.83,South,172,0.0,0.0,96,0.02,,CLR,0.11,VWS V14.01,2013-05-29 07:22:00,
2013-05-29 03:27:00,62.0,60.8,29.84,South,172,0.0,0.0,96,0.02,,CLR,0.11,VWS V14.01,2013-05-29 07:27:00,
2013-05-29 03:32:00,62.0,61.1,29.84,South,173,0.0,0.0,97,0.03,,CLR,0.12,VWS V14.01,2013-05-29 07:32:00,
2013-05-29 03:37:00,62.0,61.1,29.84,South,172,0.0,0.0,97,0.02,,CLR,0.12,VWS V14.01,2013-05-29 07:37:00,
2013-05-29 03:42:00,62.0,61.1,29.84,South,173,0.0,0.0,97,0.02,,CLR,0.12,VWS V14.01,2013-05-29 07:42:00,
2013-05-29 03:47:00,62.0,61.1,29.83,South,173,0.0,1.2,97,0.02,,CLR,0.12,VWS V14.01,2013-05-29 07:47:00,
2013-05-29 03:52:00,62.1,62.1,29.83,South,173,0.0,0.0,100,0.02,,FEW042,0.12,VWS V14.01,2013-05-29 07:52:00,
2013-05-29 03:57:00,62.1,62.1,29.83,SSE,167,0.0,0.0,100,0.02,,FEW042,0.12,VWS V14.01,2013-05-29 07:57:00,
2013-05-29 04:02:00,62.3,62.3,29.84,South,169,1.2,2.4,100,0.02,,FEW042,0.12,VWS V14.01,2013-05-29 08:02:00,
2013-05-29 04:07:00,62.3,62.3,29.84,SSW,192,5.9,5.9,100,0.01,,FEW042,0.12,VWS V14.01,2013-05-29 08:07:00,
2013-05-29 04:12:00,62.4,62.4,29.85,South,178,0.0,2.4,100,0.01,,FEW042,0.12,VWS V14.01,2013-05-29 08:12:00,
2013-05-29 04:17:00,62.7,62.7,29.85,SSW,211,2.4,3.5,100,0.01,,FEW042,0.12,VWS V14.01,2013-05-29 08:17:00,
2013-05-29 04:22:00,63.2,63.2,29.85,South,190,2.4,7.1,100,0.01,,FEW042,0.12,VWS V14.01,2013-05-29 08:22:00,
2013-05-29 04:27:00,63.7,63.7,29.86,SSW,212,1.2,5.9,100,0.01,,FEW042,0.12,VWS V14.01,2013-05-29 08:27:00,
2013-05-29 04:32:00,64.2,64.2,29.86,South,190,10.6,11.8,100,0.01,,FEW042,0.13,VWS V14.01,2013-05-29 08:32:00,
2013-05-29 04:37:00,64.8,64.8,29.85,South,173,9.4,13.0,100,0.01,,FEW042,0.13,VWS V14.01,2013-05-29 08:37:00,
2013-05-29 04:42:00,65.2,65.2,29.85,SW,234,14.2,14.2,100,0.01,,FEW042,0.13,VWS V14.01,2013-05-29 08:42:00,
2013-05-29 04:47:00,65.5,65.5,29.85,SW,224,9.4,9.4,100,0.01,,FEW042,0.13,VWS V14.01,2013-05-29 08:47:00,
2013-05-29 04:52:00,65.8,65.8,29.85,SSW,197,1.2,4.7,100,0.01,,CLR,0.13,VWS V14.01,2013-05-29 08:52:00,
2013-05-29 04:57:00,66.1,66.1,29.85,SSW,200,9.4,15.3,100,0.01,,CLR,0.13,VWS V14.01,2013-05-29 08:57:00,
2013-05-29 05:02:00,66.4,66.4,29.85,SSW,204,3.5,5.9,100,0.01,,CLR,0.13,VWS V14.01,2013-05-29 09:02:00,
2013-05-29 05:07:00,66.6,66.6,29.84,SW,231,8.3,10.6,100,0.01,,CLR,0.13,VWS V14.01,2013-05-29 09:07:00,
2013-05-29 05:13:00,66.6,66.6,29.84,South,188,11.8,11.8,100,0.01,,CLR,0.13,VWS V14.01,2013-05-29 09:13:00,
2013-05-29 05:18:00,66.6,66.6,29.84,South,180,3.5,8.3,100,0.02,,CLR,0.14,VWS V14.01,2013-05-29 09:18:00,
2013-05-29 05:23:00,66.6,66.6,29.84,South,169,7.1,8.3,100,0.02,,CLR,0.14,VWS V14.01,2013-05-29 09:23:00,
2013-05-29 05:28:00,66.6,66.6,29.83,South,189,8.3,9.4,100,0.02,,CLR,0.14,VWS V14.01,2013-05-29 09:28:00,
2013-05-29 05:33:00,66.6,66.6,29.83,SSW,196,4.7,8.3,100,0.01,,CLR,0.14,VWS V14.01,2013-05-29 09:33:00,
2013-05-29 05:38:00,66.6,66.6,29.83,SSE,155,11.8,11.8,100,0.01,,CLR,0.14,VWS V14.01,2013-05-29 09:38:00,
2013-05-29 05:43:00,66.6,66.6,29.82,South,184,9.4,13.0,100,0.01,,CLR,0.14,VWS V14.01,2013-05-29 09:43:00,
2013-05-29 05:48:00,66.6,66.6,29.82,SSW,209,14.2,20.1,100,0.01,,CLR,0.14,VWS V14.01,2013-05-29 09:48:00,
2013-05-29 05:53:00,66.8,66.8,29.82,SSE,166,7.1,9.4,100,0.01,,RA,0.14,VWS V14.01,2013-05-29 09:53:00,
2013-05-29 05:58:00,66.9,66.9,29.83,South,170,9.4,15.3,100,0.02,,RA,0.15,VWS V14.01,2013-05-29 09:58:00,
2013-05-29 06:03:00,66.9,66.9,29.83,South,182,8.3,16.5,100,0.02,,RA,0.15,VWS V14.01,2013-05-29 10:03:00,
2013-05-29 06:08:00,67.1,67.1,29.84,SSW,193,2.4,10.6,100,0.02,,RA,0.15,VWS V14.01,2013-05-29 10:08:00,
2013-05-29 06:13:00,67.3,67.3,29.83,SSW,211,4.7,7.1,100,0.02,,RA,0.15,VWS V14.01,2013-05-29 10:13:00,
2013-05-29 06:18:00,67.3,67.3,29.83,SW,233,0.0,2.4,100,0.01,,RA,0.15,VWS V14.01,2013-05-29 10:18:00,
2013-05-29 06:23:00,67.3,67.3,29.84,South,176,2.4,8.3,100,0.01,,RA,0.15,VWS V14.01,2013-05-29 10:23:00,
2013-05-29 06:28:00,67.3,67.3,29.84,South,184,1.2,7.1,100,0.01,,RA,0.15,VWS V14.01,2013-05-29 10:28:00,
2013-05-29 06:33:00,67.3,67.3,29.84,SW,220,0.0,8.3,100,0.01,,RA,0.15,VWS V14.01,2013-05-29 10:33:00,
2013-05-29 06:38:00,67.3,67.3,29.84,SSW,207,0.0,3.5,100,0.02,,RA,0.16,VWS V14.01,2013-05-29 10:38:00,
2013-05-29 06:43:00,67.3,67.3,29.85,SSW,199,1.2,7.1,100,0.02,,SCT120,0.16,VWS V14.01,2013-05-29 10:43:00,
2013-05-29 06:48:00,67.4,67.4,29.85,SSW,211,4.7,4.7,100,0.02,,SCT120,0.16,VWS V14.01,2013-05-29 10:48:00,
2013-05-29 06:53:00,67.4,67.4,29.85,SSW,196,4.7,8.3,100,0.02,,SCT120,0.16,VWS V14.01,2013-05-29 10:53:00,
2013-05-29 06:58:00,67.4,67.4,29.86,SW,232,5.9,7.1,100,0.02,,SCT120,0.16,VWS V14.01,2013-05-29 10:58:00,
2013-05-29 07:03:00,67.4,67.4,29.87,SSW,201,0.0,3.5,100,0.01,,SCT120,0.16,VWS V14.01,2013-05-29 11:03:00,
2013-05-29 07:08:00,67.4,67.4,29.88,SW,223,8.3,9.4,100,0.01,,SCT120,0.16,VWS V14.01,2013-05-29 11:08:00,
2013-05-29 07:13:00,67.4,67.4,29.89,SW,215,10.6,10.6,100,0.01,,SCT120,0.16,VWS V14.01,2013-05-29 11:13:00,
2013-05-29 07:18:00,67.4,67.4,29.89,SW,216,4.7,11.8,100,0.01,,SCT120,0.16,VWS V14.01,2013-05-29 11:18:00,
2013-05-29 07:23:00,67.6,67.6,29.90,WSW,254,3.5,5.9,100,0.01,,SCT120,0.16,VWS V14.01,2013-05-29 11:23:00,
2013-05-29 07:28:00,67.6,67.6,29.90,South,188,3.5,7.1,100,0.01,,SCT120,0.16,VWS V14.01,2013-05-29 11:28:00,
2013-05-29 07:33:00,67.6,67.6,29.90,South,179,0.0,5.9,100,0.01,,SCT120,0.16,VWS V14.01,2013-05-29 11:33:00,
2013-05-29 07:38:00,67.6,67.6,29.90,SW,232,7.1,9.4,100,0.00,,SCT120,0.16,VWS V14.01,2013-05-29 11:38:00,
2013-05-29 07:43:00,67.6,67.6,29.90,South,188,8.3,17.7,100,0.00,,SCT120,0.16,VWS V14.01,2013-05-29 11:43:00,
2013-05-29 07:48:00,67.4,67.4,29.90,West,281,5.9,14.2,100,0.01,,SCT120,0.17,VWS V14.01,2013-05-29 11:48:00,
2013-05-29 07:53:00,67.4,65.9,29.90,WNW,284,11.8,17.7,95,0.01,,CLR,0.17,VWS V14.01,2013-05-29 11:53:00,
2013-05-29 07:58:00,67.8,65.7,29.90,SSW,200,9.4,20.1,93,0.01,,CLR,0.17,VWS V14.01,2013-05-29 11:58:00,
2013-05-29 08:03:00,67.9,65.2,29.90,SSW,196,5.9,15.3,91,0.01,,CLR,0.17,VWS V14.01,2013-05-29 12:03:00,
2013-05-29 08:08:00,68.3,64.6,29.90,WSW,248,2.4,9.4,88,0.01,,CLR,0.17,VWS V14.01,2013-05-29 12:08:00,
2013-05-29 08:13:00,68.8,64.1,29.90,SW,226,5.9,20.1,85,0.01,,CLR,0.17,VWS V14.01,2013-05-29 12:13:00,
2013-05-29 08:18:00,69.1,63.3,29.90,WSW,238,7.1,15.3,82,0.01,,CLR,0.17,VWS V14.01,2013-05-29 12:18:00,
2013-05-29 08:23:00,69.4,62.9,29.90,SW,236,10.6,11.8,80,0.01,,CLR,0.17,VWS V14.01,2013-05-29 12:23:00,
2013-05-29 08:28:00,69.6,62.4,29.90,SW,218,5.9,13.0,78,0.01,,CLR,0.17,VWS V14.01,2013-05-29 12:28:00,
2013-05-29 08:33:00,69.8,62.2,29.91,SW,234,5.9,13.0,77,0.01,,CLR,0.17,VWS V14.01,2013-05-29 12:33:00,
2013-05-29 08:38:00,69.8,62.2,29.91,WSW,244,3.5,5.9,77,0.01,,CLR,0.17,VWS V14.01,2013-05-29 12:38:00,
2013-05-29 08:43:00,69.8,61.8,29.91,WNW,292,2.4,4.7,76,0.01,,CLR,0.17,VWS V14.01,2013-05-29 12:43:00,
2013-05-29 08:48:00,69.6,61.6,29.90,SSW,199,3.5,4.7,76,0.01,,CLR,0.17,VWS V14.01,2013-05-29 12:48:00,
2013-05-29 08:53:00,69.6,61.6,29.90,SSW,193,4.7,4.7,76,0.00,,CLR,0.17,VWS V14.01,2013-05-29 12:53:00,
2013-05-29 08:58:00,69.6,61.6,29.90,SW,225,0.0,3.5,76,0.00,,CLR,0.17,VWS V14.01,2013-05-29 12:58:00,
2013-05-29 09:03:00,69.6,62.0,29.92,SSW,199,3.5,5.9,77,0.00,,CLR,0.17,VWS V14.01,2013-05-29 13:03:00,
2013-05-29 09:08:00,69.4,61.8,29.91,SSW,211,3.5,7.1,77,0.01,,CLR,0.18,VWS V14.01,2013-05-29 13:08:00,
2013-05-29 09:13:00,69.6,62.0,29.91,SSW,198,7.1,9.4,77,0.01,,CLR,0.18,VWS V14.01,2013-05-29 13:13:00,
2013-05-29 09:18:00,69.8,62.5,29.91,SSW,192,3.5,8.3,78,0.01,,CLR,0.18,VWS V14.01,2013-05-29 13:18:00,
2013-05-29 09:23:00,69.9,62.7,29.91,SW,227,3.5,5.9,78,0.01,,CLR,0.18,VWS V14.01,2013-05-29 13:23:00,
2013-05-29 09:28:00,70.1,62.8,29.91,SSW,198,0.0,8.3,78,0.01,,CLR,0.18,VWS V14.01,2013-05-29 13:28:00,
2013-05-29 09:33:00,70.4,63.1,29.91,SSW,195,3.5,9.4,78,0.01,,CLR,0.18,VWS V14.01,2013-05-29 13:33:00,
2013-05-29 09:38:00,70.6,63.3,29.92,South,172,10.6,10.6,78,0.01,,CLR,0.18,VWS V14.01,2013-05-29 13:38:00,
2013-05-29 09:43:00,70.9,63.2,29.92,SW,219,4.7,7.1,77,0.01,,CLR,0.18,VWS V14.01,2013-05-29 13:43:00,
2013-05-29 09:48:00,71.1,63.1,29.92,South,182,8.3,16.5,76,0.01,,CLR,0.18,VWS V14.01,2013-05-29 13:48:00,
2013-05-29 09:53:00,71.6,63.9,29.92,SSW,199,7.1,7.1,77,0.01,,CLR,0.18,VWS V14.01,2013-05-29 13:53:00,
2013-05-29 09:58:00,72.0,63.2,29.92,SW,234,9.4,11.8,74,0.01,,CLR,0.18,VWS V14.01,2013-05-29 13:58:00,
2013-05-29 10:03:00,72.5,63.7,29.92,SSW,200,11.8,11.8,74,0.01,,CLR,0.18,VWS V14.01,2013-05-29 14:03:00,
2013-05-29 10:08:00,72.8,62.7,29.92,SW,231,8.3,15.3,71,0.00,,CLR,0.18,VWS V14.01,2013-05-29 14:08:00,
2013-05-29 10:13:00,73.3,63.2,29.92,SW,214,5.9,5.9,71,0.00,,CLR,0.18,VWS V14.01,2013-05-29 14:13:00,
2013-05-29 10:18:00,73.9,64.2,29.92,SW,232,1.2,8.3,72,0.00,,CLR,0.18,VWS V14.01,2013-05-29 14:18:00,
2013-05-29 10:23:00,74.4,63.9,29.93,South,191,5.9,13.0,70,0.00,,CLR,0.18,VWS V14.01,2013-05-29 14:23:00,
2013-05-29 10:28:00,74.7,63.7,29.93,South,189,4.7,9.4,69,0.00,,CLR,0.18,VWS V14.01,2013-05-29 14:28:00,
2013-05-29 10:33:00,75.1,64.1,29.93,SW,216,3.5,7.1,69,0.00,,CLR,0.18,VWS V14.01,2013-05-29 14:33:00,
2013-05-29 10:38:00,75.3,63.5,29.93,WSW,242,5.9,13.0,67,0.00,,CLR,0.18,VWS V14.01,2013-05-29 14:38:00,
2013-05-29 10:43:00,75.4,63.1,29.93,WSW,248,2.4,5.9,66,0.00,,CLR,0.18,VWS V14.01,2013-05-29 14:43:00,
2013-05-29 10:48:00,75.8,63.5,29.93,SSW,208,7.1,11.8,66,0.00,,CLR,0.18,VWS V14.01,2013-05-29 14:48:00,
2013-05-29 10:53:00,76.0,62.3,29.94,WSW,251,7.1,7.1,63,0.00,,CLR,0.18,VWS V14.01,2013-05-29 14:53:00,
2013-05-29 10:58:00,76.3,63.1,29.94,South,183,4.7,8.3,64,0.00,,CLR,0.18,VWS V14.01,2013-05-29 14:58:00,
2013-05-29 11:03:00,76.7,62.1,29.94,West,270,3.5,5.9,61,0.00,,CLR,0.18,VWS V14.01,2013-05-29 15:03:00,
2013-05-29 11:08:00,77.0,62.3,29.94,West,272,4.7,8.3,61,0.00,,CLR,0.18,VWS V14.01,2013-05-29 15:08:00,
2013-05-29 11:13:00,77.4,62.2,29.95,SSW,195,1.2,7.1,60,0.00,,CLR,0.18,VWS V14.01,2013-05-29 15:13:00,
2013-05-29 11:18:00,77.7,63.0,29.94,SSW,209,7.1,11.8,61,0.00,,CLR,0.18,VWS V14.01,2013-05-29 15:18:00,
2013-05-29 11:23:00,77.9,63.2,29.94,WSW,253,3.5,16.5,61,0.00,,CLR,0.18,VWS V14.01,2013-05-29 15:23:00,
2013-05-29 11:28:00,77.7,62.5,29.95,SW,215,10.6,11.8,60,0.00,,CLR,0.18,VWS V14.01,2013-05-29 15:28:00,
2013-05-29 11:33:00,77.9,64.1,29.95,NW,314,2.4,3.5,63,0.01,,CLR,0.19,VWS V14.01,2013-05-29 15:33:00,
2013-05-29 11:38:00,78.3,63.6,29.95,SW,227,8.3,13.0,61,0.01,,CLR,0.19,VWS V14.01,2013-05-29 15:38:00,
2013-05-29 11:43:00,78.5,63.8,29.96,WSW,250,5.9,9.4,61,0.01,,CLR,0.19,VWS V14.01,2013-05-29 15:43:00,
2013-05-29 11:48:00,78.3,62.6,29.96,WSW,244,10.6,17.7,59,0.01,,CLR,0.19,VWS V14.01,2013-05-29 15:48:00,
2013-05-29 11:53:00,78.3,63.1,29.96,SSW,210,8.3,13.0,60,0.01,,CLR,0.19,VWS V14.01,2013-05-29 15:53:00,
2013-05-29 11:58:00,77.9,62.7,29.96,West,261,9.4,9.4,60,0.01,,CLR,0.19,VWS V14.01,2013-05-29 15:58:00,
2013-05-29 12:03:00,77.7,63.0,29.96,WSW,242,4.7,7.1,61,0.01,,CLR,0.19,VWS V14.01,2013-05-29 16:03:00,
2013-05-29 12:08:00,77.2,62.5,29.96,SSW,207,4.7,4.7,61,0.01,,CLR,0.19,VWS V14.01,2013-05-29 16:08:00,
2013-05-29 12:13:00,76.7,62.1,29.96,SW,224,9.4,15.3,61,0.01,,CLR,0.19,VWS V14.01,2013-05-29 16:13:00,
2013-05-29 12:18:00,76.1,62.4,29.96,SW,215,3.5,4.7,63,0.01,,CLR,0.19,VWS V14.01,2013-05-29 16:18:00,
2013-05-29 12:23:00,76.0,62.3,29.96,SW,232,4.7,4.7,63,0.01,,CLR,0.19,VWS V14.01,2013-05-29 16:23:00,
2013-05-29 12:28:00,75.8,63.0,29.96,WSW,242,0.0,1.2,65,0.01,,CLR,0.19,VWS V14.01,2013-05-29 16:28:00,
2013-05-29 12:33:00,75.8,63.5,29.96,WSW,238,0.0,1.2,66,0.00,,CLR,0.19,VWS V14.01,2013-05-29 16:33:00,
2013-05-29 12:38:00,75.8,63.5,29.97,SSE,155,0.0,0.0,66,0.00,,CLR,0.19,VWS V14.01,2013-05-29 16:38:00,
2013-05-29 12:43:00,76.0,64.1,29.97,SSE,155,0.0,0.0,67,0.00,,CLR,0.19,VWS V14.01,2013-05-29 16:43:00,
2013-05-29 12:48:00,76.0,64.1,29.97,SW,223,2.4,3.5,67,0.00,,CLR,0.19,VWS V14.01,2013-05-29 16:48:00,
2013-05-29 12:53:00,76.1,64.2,29.97,SW,234,0.0,0.0,67,0.00,,OVC050,0.19,VWS V14.01,2013-05-29 16:53:00,
2013-05-29 12:58:00,76.1,64.2,29.97,WSW,254,1.2,3.5,67,0.00,,OVC050,0.19,VWS V14.01,2013-05-29 16:58:00,
2013-05-29 13:03:00,76.3,64.4,29.97,West,259,2.4,3.5,67,0.00,,OVC050,0.19,VWS V14.01,2013-05-29 17:03:00,
2013-05-29 13:08:00,76.3,64.4,29.97,West,259,0.0,0.0,67,0.00,,OVC050,0.19,VWS V14.01,2013-05-29 17:08:00,
2013-05-29 13:13:00,76.3,64.4,29.97,WSW,243,0.0,0.0,67,0.00,,OVC050,0.19,VWS V14.01,2013-05-29 17:13:00,
2013-05-29 13:18:00,76.3,64.8,29.97,WSW,241,0.0,0.0,68,0.00,,OVC050,0.19,VWS V14.01,2013-05-29 17:18:00,
2013-05-29 13:23:00,76.5,65.4,29.97,SSW,192,1.2,4.7,69,0.00,,OVC050,0.19,VWS V14.01,2013-05-29 17:23:00,
2013-05-29 13:28:00,76.7,65.6,29.97,WSW,237,2.4,10.6,69,0.00,,OVC050,0.19,VWS V14.01,2013-05-29 17:28:00,
2013-05-29 13:33:00,76.8,65.7,29.96,WSW,245,4.7,4.7,69,0.00,,OVC050,0.19,VWS V14.01,2013-05-29 17:33:00,
2013-05-29 13:38:00,77.6,66.9,29.96,SSE,167,1.2,4.7,70,0.00,,OVC050,0.19,VWS V14.01,2013-05-29 17:38:00,
2013-05-29 13:43:00,78.5,66.5,29.96,SSE,157,5.9,11.8,67,0.00,,OVC050,0.19,VWS V14.01,2013-05-29 17:43:00,
2013-05-29 13:48:00,79.0,66.5,29.96,South,178,8.3,8.3,66,0.01,,OVC050,0.20,VWS V14.01,2013-05-29 17:48:00,
2013-05-29 13:53:00,79.4,66.9,29.96,SSW,194,13.0,13.0,66,0.01,,OVC065,0.20,VWS V14.01,2013-05-29 17:53:00,
2013-05-29 13:58:00,79.4,66.9,29.96,South,171,4.7,4.7,66,0.01,,OVC065,0.20,VWS V14.01,2013-05-29 17:58:00,
2013-05-29 14:03:00,79.2,67.2,29.96,SW,234,5.9,8.3,67,0.01,,OVC065,0.20,VWS V14.01,2013-05-29 18:03:00,
2013-05-29 14:08:00,78.6,66.6,29.96,SSW,200,0.0,8.3,67,0.01,,OVC065,0.20,VWS V14.01,2013-05-29 18:08:00,
2013-05-29 14:13:00,78.3,66.7,29.96,South,183,2.4,8.3,68,0.01,,OVC065,0.20,VWS V14.01,2013-05-29 18:13:00,
2013-05-29 14:19:00,77.9,66.8,29.96,SSW,206,4.7,9.4,69,0.01,,OVC065,0.20,VWS V14.01,2013-05-29 18:19:00,
2013-05-29 14:24:00,77.6,66.9,29.96,SSE,162,7.1,16.5,70,0.01,,OVC065,0.20,VWS V14.01,2013-05-29 18:24:00,
2013-05-29 14:29:00,77.6,67.3,29.96,SSW,196,7.1,7.1,71,0.01,,OVC065,0.20,VWS V14.01,2013-05-29 18:29:00,
2013-05-29 14:34:00,77.6,67.3,29.96,SW,235,8.3,8.3,71,0.01,,OVC065,0.20,VWS V14.01,2013-05-29 18:34:00,
2013-05-29 14:39:00,77.7,66.6,29.96,South,183,9.4,11.8,69,0.01,,OVC065,0.20,VWS V14.01,2013-05-29 18:39:00,
2013-05-29 14:44:00,78.3,67.6,29.96,SSW,194,8.3,8.3,70,0.01,,OVC065,0.20,VWS V14.01,2013-05-29 18:44:00,
2013-05-29 14:49:00,78.8,66.8,29.96,SW,218,4.7,11.8,67,0.01,,OVC065,0.20,VWS V14.01,2013-05-29 18:49:00,
2013-05-29 14:54:00,79.2,67.6,29.96,South,176,5.9,10.6,68,0.00,,BKN065,0.20,VWS V14.01,2013-05-29 18:54:00,
2013-05-29 14:59:00,79.2,67.2,29.96,SSW,194,7.1,10.6,67,0.00,,BKN065,0.20,VWS V14.01,2013-05-29 18:59:00,
2013-05-29 15:04:00,79.6,68.0,29.95,WNW,288,8.3,10.6,68,0.00,,BKN065,0.20,VWS V14.01,2013-05-29 19:04:00,
2013-05-29 15:09:00,79.6,67.5,29.95,SSW,195,9.4,10.6,67,0.00,,BKN065,0.20,VWS V14.01,2013-05-29 19:09:00,
2013-05-29 15:14:00,79.6,67.5,29.96,South,190,4.7,7.1,67,0.00,,BKN065,0.20,VWS V14.01,2013-05-29 19:14:00,
2013-05-29 15:19:00,79.6,67.5,29.95,SSW,198,7.1,7.1,67,0.00,,BKN065,0.20,VWS V14.01,2013-05-29 19:19:00,
2013-05-29 15:24:00,79.9,67.8,29.95,SSW,197,5.9,8.3,67,0.00,,BKN065,0.20,VWS V14.01,2013-05-29 19:24:00,
2013-05-29 15:29:00,80.5,68.4,29.95,South,181,4.7,5.9,67,0.00,,BKN065,0.20,VWS V14.01,2013-05-29 19:29:00,
2013-05-29 15:34:00,80.9,67.9,29.95,SSW,198,4.7,9.4,65,0.00,,BKN065,0.20,VWS V14.01,2013-05-29 19:34:00,
2013-05-29 15:39:00,81.6,69.4,29.94,South,174,4.7,8.3,67,0.00,,BKN065,0.20,VWS V14.01,2013-05-29 19:39:00,
2013-05-29 15:44:00,81.6,69.0,29.94,SSW,195,7.1,7.1,66,0.00,,BKN065,0.20,VWS V14.01,2013-05-29 19:44:00,
2013-05-29 15:49:00,82.2,68.7,29.94,SE,130,5.9,9.4,64,0.00,,BKN065,0.20,VWS V14.01,2013-05-29 19:49:00,
2013-05-29 15:54:00,81.4,68.3,29.95,SSW,213,1.2,2.4,65,0.00,,BKN070,0.20,VWS V14.01,2013-05-29 19:54:00,
2013-05-29 15:59:00,80.9,68.8,29.94,SW,220,2.4,9.4,67,0.00,,BKN070,0.20,VWS V14.01,2013-05-29 19:59:00,
2013-05-29 16:04:00,80.5,67.9,29.94,WSW,250,3.5,5.9,66,0.00,,BKN070,0.20,VWS V14.01,2013-05-29 20:04:00,
2013-05-29 16:09:00,80.5,67.9,29.94,SSW,203,2.4,4.7,66,0.00,,BKN070,0.20,VWS V14.01,2013-05-29 20:09:00,
2013-05-29 16:14:00,81.4,68.3,29.94,SSE,167,9.4,9.4,65,0.00,,BKN070,0.20,VWS V14.01,2013-05-29 20:14:00,
2013-05-29 16:19:00,82.0,68.9,29.93,SE,126,1.2,7.1,65,0.00,,BKN070,0.20,VWS V14.01,2013-05-29 20:19:00,
2013-05-29 16:24:00,82.0,68.5,29.93,SSW,206,3.5,3.5,64,0.00,,BKN070,0.20,VWS V14.01,2013-05-29 20:24:00,
2013-05-29 16:29:00,82.2,68.2,29.93,SW,225,3.5,8.3,63,0.00,,BKN070,0.20,VWS V14.01,2013-05-29 20:29:00,
2013-05-29 16:34:00,82.2,68.7,29.93,South,184,2.4,7.1,64,0.00,,BKN070,0.20,VWS V14.01,2013-05-29 20:34:00,
2013-05-29 16:39:00,81.4,67.9,29.93,SSW,197,4.7,9.4,64,0.00,,BKN070,0.20,VWS V14.01,2013-05-29 20:39:00,
2013-05-29 16:44:00,82.0,68.5,29.93,West,259,2.4,7.1,64,0.00,,BKN070,0.20,VWS V14.01,2013-05-29 20:44:00,
2013-05-29 16:49:00,82.2,68.7,29.93,South,185,7.1,10.6,64,0.00,,BKN070,0.20,VWS V14.01,2013-05-29 20:49:00,
2013-05-29 16:54:00,81.8,68.3,29.93,South,180,5.9,7.1,64,0.00,,BKN070,0.20,VWS V14.01,2013-05-29 20:54:00,
2013-05-29 16:59:00,81.8,67.8,29.93,SSW,202,5.9,7.1,63,0.00,,BKN070,0.20,VWS V14.01,2013-05-29 20:59:00,
2013-05-29 17:04:00,82.4,67.4,29.92,SW,217,2.4,13.0,61,0.00,,OVC032,0.20,VWS V14.01,2013-05-29 21:04:00,
2013-05-29 17:09:00,83.0,67.5,29.92,SW,233,4.7,9.4,60,0.00,,OVC032,0.20,VWS V14.01,2013-05-29 21:09:00,
2013-05-29 17:14:00,83.2,68.2,29.92,South,180,2.4,14.2,61,0.00,,OVC032,0.20,VWS V14.01,2013-05-29 21:14:00,
2013-05-29 17:19:00,83.4,67.9,29.92,WSW,249,7.1,13.0,60,0.00,,OVC032,0.20,VWS V14.01,2013-05-29 21:19:00,
2013-05-29 17:24:00,83.4,67.9,29.92,South,184,2.4,4.7,60,0.00,,OVC032,0.20,VWS V14.01,2013-05-29 21:24:00,
2013-05-29 17:29:00,84.0,68.4,29.92,SSE,165,1.2,3.5,60,0.00,,OVC032,0.20,VWS V14.01,2013-05-29 21:29:00,
2013-05-29 17:34:00,84.1,68.5,29.92,West,278,1.2,4.7,60,0.00,,OVC032,0.20,VWS V14.01,2013-05-29 21:34:00,
2013-05-29 17:39:00,84.1,69.0,29.92,SSE,162,9.4,10.6,61,0.00,,OVC032,0.20,VWS V14.01,2013-05-29 21:39:00,
2013-05-29 17:44:00,83.4,68.8,29.92,SE,139,8.3,9.4,62,0.00,,BKN032,0.20,VWS V14.01,2013-05-29 21:44:00,
2013-05-29 17:49:00,83.8,69.7,29.93,South,179,5.9,10.6,63,0.00,,BKN032,0.20,VWS V14.01,2013-05-29 21:49:00,
2013-05-29 17:54:00,84.1,68.5,29.92,SSW,204,5.9,8.3,60,0.00,,BKN032,0.20,VWS V14.01,2013-05-29 21:54:00,
2013-05-29 17:59:00,84.3,67.7,29.92,SSW,198,3.5,10.6,58,0.00,,BKN032,0.20,VWS V14.01,2013-05-29 21:59:00,
2013-05-29 18:04:00,84.5,68.4,29.92,SW,236,8.3,8.3,59,0.00,,BKN032,0.20,VWS V14.01,2013-05-29 22:04:00,
2013-05-29 18:09:00,84.3,66.7,29.92,SSW,196,3.5,5.9,56,0.00,,BKN032,0.20,VWS V14.01,2013-05-29 22:09:00,
2013-05-29 18:14:00,84.3,67.7,29.92,SW,232,2.4,7.1,58,0.00,,BKN032,0.20,VWS V14.01,2013-05-29 22:14:00,
2013-05-29 18:19:00,84.5,66.9,29.92,SSW,192,3.5,8.3,56,0.00,,BKN032,0.20,VWS V14.01,2013-05-29 22:19:00,
2013-05-29 18:24:00,84.5,66.3,29.92,WSW,240,3.5,10.6,55,0.00,,BKN032,0.20,VWS V14.01,2013-05-29 22:24:00,
2013-05-29 18:29:00,84.1,66.0,29.92,SW,215,3.5,11.8,55,0.00,,BKN032,0.20,VWS V14.01,2013-05-29 22:29:00,
2013-05-29 18:34:00,84.0,66.4,29.92,SSW,197,2.4,7.1,56,0.00,,BKN032,0.20,VWS V14.01,2013-05-29 22:34:00,
2013-05-29 18:39:00,84.0,67.4,29.92,South,170,1.2,10.6,58,0.00,,BKN032,0.20,VWS V14.01,2013-05-29 22:39:00,
2013-05-29 18:44:00,83.8,66.2,29.91,SSW,211,5.9,7.1,56,0.00,,BKN032,0.20,VWS V14.01,2013-05-29 22:44:00,
2013-05-29 18:49:00,83.8,65.7,29.91,SSW,195,2.4,5.9,55,0.00,,BKN032,0.20,VWS V14.01,2013-05-29 22:49:00,
2013-05-29 18:54:00,83.6,66.6,29.91,South,173,9.4,9.4,57,0.00,,BKN090,0.20,VWS V14.01,2013-05-29 22:54:00,
2013-05-29 18:59:00,83.6,66.0,29.91,South,174,4.7,9.4,56,0.00,,BKN090,0.20,VWS V14.01,2013-05-29 22:59:00,
2013-05-29 19:04:00,83.2,65.7,29.91,SW,220,2.4,10.6,56,0.00,,BKN090,0.20,VWS V14.01,2013-05-29 23:04:00,
2013-05-29 19:09:00,83.2,65.7,29.91,SSW,202,9.4,9.4,56,0.00,,BKN090,0.20,VWS V14.01,2013-05-29 23:09:00,
2013-05-29 19:14:00,83.2,65.1,29.91,South,177,7.1,11.8,55,0.00,,BKN090,0.20,VWS V14.01,2013-05-29 23:14:00,
2013-05-29 19:19:00,83.2,65.1,29.90,SSW,192,5.9,11.8,55,0.00,,BKN090,0.20,VWS V14.01,2013-05-29 23:19:00,
2013-05-29 19:24:00,83.0,65.5,29.90,South,190,9.4,9.4,56,0.00,,BKN090,0.20,VWS V14.01,2013-05-29 23:24:00,
2013-05-29 19:29:00,82.8,65.3,29.91,SSW,195,5.9,7.1,56,0.00,,BKN090,0.20,VWS V14.01,2013-05-29 23:29:00,
2013-05-29 19:34:00,82.6,65.1,29.91,South,175,8.3,9.4,56,0.00,,BKN090,0.20,VWS V14.01,2013-05-29 23:34:00,
2013-05-29 19:39:00,82.4,64.9,29.91,WSW,240,3.5,13.0,56,0.00,,BKN090,0.20,VWS V14.01,2013-05-29 23:39:00,
2013-05-29 19:44:00,82.0,65.1,29.91,SSE,151,9.4,9.4,57,0.00,,BKN090,0.20,VWS V14.01,2013-05-29 23:44:00,
2013-05-29 19:49:00,82.0,65.1,29.91,South,180,3.5,3.5,57,0.00,,BKN090,0.20,VWS V14.01,2013-05-29 23:49:00,
2013-05-29 19:54:00,81.8,64.9,29.91,SSW,198,0.0,5.9,57,0.00,,CLR,0.20,VWS V14.01,2013-05-29 23:54:00,
2013-05-29 19:59:00,81.6,65.2,29.91,South,175,5.9,5.9,58,0.00,,CLR,0.20,VWS V14.01,2013-05-29 23:59:00,
2013-05-29 20:04:00,81.4,65.0,29.91,SSW,200,5.9,11.8,58,0.00,,CLR,0.20,VWS V14.01,2013-05-30 00:04:00,
2013-05-29 20:09:00,81.2,65.3,29.92,South,187,5.9,7.1,59,0.00,,CLR,0.20,VWS V14.01,2013-05-30 00:09:00,
2013-05-29 20:14:00,81.1,65.2,29.92,South,182,7.1,7.1,59,0.00,,CLR,0.20,VWS V14.01,2013-05-30 00:14:00,
2013-05-29 20:19:00,80.7,65.3,29.92,SSW,194,1.2,9.4,60,0.00,,CLR,0.20,VWS V14.01,2013-05-30 00:19:00,
2013-05-29 20:24:00,80.5,65.2,29.91,SSE,154,5.9,9.4,60,0.00,,CLR,0.20,VWS V14.01,2013-05-30 00:24:00,
2013-05-29 20:29:00,80.3,65.4,29.92,SSW,198,2.4,5.9,61,0.00,,CLR,0.20,VWS V14.01,2013-05-30 00:29:00,
2013-05-29 20:34:00,80.1,65.3,29.92,SSE,167,2.4,5.9,61,0.00,,CLR,0.20,VWS V14.01,2013-05-30 00:34:00,
2013-05-29 20:39:00,79.9,65.6,29.92,South,184,1.2,7.1,62,0.00,,CLR,0.20,VWS V14.01,2013-05-30 00:39:00,
2013-05-29 20:44:00,79.8,65.4,29.92,SSE,165,2.4,4.7,62,0.00,,CLR,0.20,VWS V14.01,2013-05-30 00:44:00,
2013-05-29 20:49:00,79.6,65.7,29.91,SE,146,2.4,2.4,63,0.00,,CLR,0.20,VWS V14.01,2013-05-30 00:49:00,
2013-05-29 20:54:00,79.2,65.4,29.92,SSE,148,0.0,1.2,63,0.00,,CLR,0.20,VWS V14.01,2013-05-30 00:54:00,
2013-05-29 20:59:00,79.0,65.2,29.92,South,187,0.0,1.2,63,0.00,,CLR,0.20,VWS V14.01,2013-05-30 00:59:00,
2013-05-29 21:04:00,78.8,65.4,29.92,South,188,2.4,3.5,64,0.00,,CLR,0.20,VWS V14.01,2013-05-30 01:04:00,
2013-05-29 21:09:00,78.5,65.2,29.92,SSE,167,0.0,1.2,64,0.00,,CLR,0.20,VWS V14.01,2013-05-30 01:09:00,
2013-05-29 21:14:00,78.3,65.0,29.92,SSE,161,0.0,1.2,64,0.00,,CLR,0.20,VWS V14.01,2013-05-30 01:14:00,
2013-05-29 21:19:00,78.1,65.2,29.92,South,179,0.0,0.0,65,0.00,,CLR,0.20,VWS V14.01,2013-05-30 01:19:00,
2013-05-29 21:24:00,77.7,64.8,29.92,South,179,0.0,2.4,65,0.00,,CLR,0.20,VWS V14.01,2013-05-30 01:24:00,
2013-05-29 21:29:00,77.6,65.2,29.92,SSE,154,0.0,0.0,66,0.00,,CLR,0.20,VWS V14.01,2013-05-30 01:29:00,
2013-05-29 21:34:00,77.2,64.8,29.92,SSE,154,0.0,0.0,66,0.00,,CLR,0.20,VWS V14.01,2013-05-30 01:34:00,
2013-05-29 21:39:00,77.0,65.1,29.92,SSE,154,0.0,1.2,67,0.00,,CLR,0.20,VWS V14.01,2013-05-30 01:39:00,
2013-05-29 21:44:00,76.7,65.2,29.92,SSE,154,0.0,1.2,68,0.00,,CLR,0.20,VWS V14.01,2013-05-30 01:44:00,
2013-05-29 21:49:00,76.5,65.0,29.93,SSE,154,0.0,0.0,68,0.00,,CLR,0.20,VWS V14.01,2013-05-30 01:49:00,
2013-05-29 21:54:00,76.1,65.1,29.93,SSE,154,0.0,0.0,69,0.00,,SCT065,0.20,VWS V14.01,2013-05-30 01:54:00,
2013-05-29 21:59:00,76.0,65.0,29.93,SSE,154,0.0,1.2,69,0.00,,SCT065,0.20,VWS V14.01,2013-05-30 01:59:00,
2013-05-29 22:04:00,75.6,65.0,29.93,SSE,154,0.0,1.2,70,0.00,,SCT065,0.20,VWS V14.01,2013-05-30 02:04:00,
2013-05-29 22:09:00,75.3,64.7,29.93,SE,132,1.2,1.2,70,0.00,,SCT065,0.20,VWS V14.01,2013-05-30 02:09:00,
2013-05-29 22:14:00,75.1,64.9,29.93,SE,135,0.0,2.4,71,0.00,,SCT065,0.20,VWS V14.01,2013-05-30 02:14:00,
2013-05-29 22:19:00,74.7,64.6,29.93,SSE,154,1.2,8.3,71,0.00,,SCT065,0.20,VWS V14.01,2013-05-30 02:19:00,
2013-05-29 22:24:00,74.6,64.5,29.93,SSW,195,2.4,7.1,71,0.00,,SCT065,0.20,VWS V14.01,2013-05-30 02:24:00,
2013-05-29 22:29:00,74.4,64.3,29.93,ESE,122,0.0,5.9,71,0.00,,SCT065,0.20,VWS V14.01,2013-05-30 02:29:00,
2013-05-29 22:34:00,74.4,64.3,29.93,SSE,155,2.4,7.1,71,0.00,,SCT065,0.20,VWS V14.01,2013-05-30 02:34:00,
2013-05-29 22:39:00,74.2,64.1,29.93,SE,146,2.4,4.7,71,0.00,,SCT065,0.20,VWS V14.01,2013-05-30 02:39:00,
2013-05-29 22:44:00,74.0,63.9,29.93,SE,140,2.4,5.9,71,0.00,,SCT065,0.20,VWS V14.01,2013-05-30 02:44:00,
2013-05-29 22:49:00,74.0,64.3,29.93,SE,145,4.7,4.7,72,0.00,,SCT065,0.20,VWS V14.01,2013-05-30 02:49:00,
2013-05-29 22:54:00,73.9,64.2,29.94,South,177,0.0,1.2,72,0.00,,FEW060,0.20,VWS V14.01,2013-05-30 02:54:00,
2013-05-29 22:59:00,73.7,64.0,29.93,SE,134,1.2,4.7,72,0.00,,FEW060,0.20,VWS V14.01,2013-05-30 02:59:00,
2013-05-29 23:04:00,73.5,64.2,29.93,SE,132,0.0,1.2,73,0.00,,FEW060,0.20,VWS V14.01,2013-05-30 03:04:00,
2013-05-29 23:09:00,73.3,64.0,29.94,SE,130,4.7,4.7,73,0.00,,FEW060,0.20,VWS V14.01,2013-05-30 03:09:00,
2013-05-29 23:14:00,73.2,63.9,29.93,South,169,0.0,4.7,73,0.00,,FEW060,0.20,VWS V14.01,2013-05-30 03:14:00,
2013-05-29 23:19:00,73.0,63.7,29.94,SSE,163,0.0,0.0,73,0.00,,FEW060,0.20,VWS V14.01,2013-05-30 03:19:00,
2013-05-29 23:24:00,72.8,63.9,29.93,SE,146,2.4,4.7,74,0.00,,FEW060,0.20,VWS V14.01,2013-05-30 03:24:00,
2013-05-29 23:29:00,72.7,63.8,29.93,SE,144,4.7,5.9,74,0.00,,FEW060,0.20,VWS V14.01,2013-05-30 03:29:00,
2013-05-29 23:34:00,72.5,63.7,29.93,South,176,2.4,2.4,74,0.00,,FEW060,0.20,VWS V14.01,2013-05-30 03:34:00,
2013-05-29 23:39:00,72.5,63.7,29.94,South,173,2.4,4.7,74,0.00,,FEW060,0.20,VWS V14.01,2013-05-30 03:39:00,
2013-05-29 23:44:00,72.3,63.5,29.94,South,180,1.2,1.2,74,0.00,,FEW060,0.20,VWS V14.01,2013-05-30 03:44:00,
2013-05-29 23:49:00,72.3,63.5,29.94,SSE,150,0.0,2.4,74,0.00,,FEW060,0.20,VWS V14.01,2013-05-30 03:49:00,
2013-05-29 23:54:00,72.1,63.3,29.94,SSE,150,0.0,2.4,74,0.00,,CLR,0.20,VWS V14.01,2013-05-30 03:54:00,
2013-05-29 23:59:00,72.0,63.2,29.94,SSE,158,4.7,4.7,74,0.00,,CLR,0.20,VWS V14.01,2013-05-30 03:59:00,